GOES 9

operational
NORAD ID: 23581 Int'l Des: 1995-025 Owner: NOAA Country: US
HEOCIRCULAR

关于 GOES 9

正在加载描述...

实时位置

正在加载3D地球...

即将过境

高度历史

Altitude vs Time

uPlot chart will show altitude changes over time

两行轨道根数

1 23581U 95025A 26062.28656094 -.00000111 00000-0 00000+0 0 9999
2 23581 13.8687 15.3213 0003670 211.1154 323.5692 0.98798997111717
Epoch: Mar 3, 2026 • Age: 42 hours

当前状态

高度 36213.0 km
速度 3.06 km/s
星下点 -6.97°S, 81.12°W
发射日期 May 23, 1995
运行时间 30.7 years
类型 weather

技术详情

分类 Payload
质量 2105.00 kg
干质量 977.00 kg
总质量 2105.00 kg
长度 4.50 m
直径 2.50 m
跨度 26.90 m
形状 Box + Pan + Ant
制造商 LOR
平台类型 FS-1300
阶段状态 In Orbit
所有者/国家 NOAA/US

大型星座

Loading constellations...